Home   Weather   Exeter   Past weeks

Flag for United Kingdom Past Weather in Exeter, England, United Kingdom — Yesterday and Last 2 Weeks

Now
32 °F

Clear.


Feels Like: 26 °F
Forecast: N/A
Wind: 7 mph from East

Location: Exeter Airport

Current Time: Jan 19, 2017 at 9:36:55 pm

Latest Report: Jan 19, 2017 at 8:50 pm


Visibility: 10 mi

Pressure: 30.54 "Hg

Humidity: 87%

Dew Point: 28 °F

Location of ExeterLocation

Past Weather in Exeter — Graph

°F

Exeter Temperature Yesterday

Maximum temperature yesterday: 45 °F (at 12:50 pm)
Minimum temperature yesterday: 30 °F (at 9:50 pm)
Average temperature yesterday: 38 °F

High & Low Weather Summary for the Past Weeks

 TemperatureHumidityPressure
High54 °F (Jan 7, 12:20 pm)100% (Jan 6, 4:20 pm)30.66 "Hg (Jan 6, 4:20 pm)
Low27 °F (Jan 19, 6:50 am)42% (Jan 19, 12:50 pm)29.45 "Hg (Jan 12, 2:20 pm)
Average44 °F85%30.29 "Hg
* Reported Jan 4 8:20 pm — Jan 19 8:20 pm, Exeter, Weather by CustomWeather, © 2017

Note: Actual official high and low records may vary slightly from our data, if they occured in-between our weather recording intervals... More about our weather records

Advertising

Exeter Weather History for the Previous 24 Hours

Scroll right to see more
 ConditionsComfort  
Time TempWeatherWind HumidityBarometerVisibility
8:20 pm
Thu, Jan 19
30 °FClear.5 mph93%30.54 "Hg10 mi
7:50 pm30 °FClear.7 mph93%30.54 "Hg10 mi
7:20 pm32 °FClear.6 mph87%30.54 "Hg10 mi
6:50 pm34 °FClear.6 mph81%30.54 "Hg10 mi
6:20 pm36 °FClear.5 mph75%30.54 "Hg10 mi
5:50 pm37 °FClear.3 mph65%30.54 "Hg10 mi
5:20 pm37 °FClear.5 mph70%30.54 "Hg10 mi
4:50 pm39 °FClear.7 mph65%30.54 "Hg10 mi
4:20 pm41 °FSunny.8 mph61%30.54 "Hg10 mi
3:50 pm43 °FSunny.6 mph57%30.54 "Hg10 mi
3:20 pm45 °FSunny.7 mph46%30.57 "Hg10 mi
2:50 pm45 °FSunny.10 mph42%30.57 "Hg10 mi
2:20 pm45 °FSunny.13 mph42%30.57 "Hg10 mi
1:50 pm45 °FSunny.12 mph42%30.57 "Hg10 mi
1:20 pm45 °FSunny.12 mph42%30.57 "Hg10 mi
12:50 pm43 °FSunny.10 mph42%30.57 "Hg10 mi
12:20 pm43 °FPassing clouds.7 mph46%30.60 "HgN/A
11:50 am41 °FSunny.3 mph61%30.60 "Hg10 mi
11:20 am39 °FPassing clouds.5 mph70%30.60 "HgN/A
10:50 am37 °FSunny.6 mph70%30.63 "Hg10 mi
10:20 am34 °FSunny.5 mph81%30.63 "Hg10 mi
9:50 am32 °FSunny.3 mph80%30.63 "Hg10 mi
9:20 am30 °FSunny.1 mph80%30.63 "Hg10 mi
8:50 am28 °FSunny.2 mph86%30.63 "Hg10 mi
8:20 am27 °FSunny.2 mph86%30.60 "Hg10 mi
7:50 am27 °FClear.3 mph93%30.60 "Hg10 mi
7:20 am27 °FClear.3 mph93%30.60 "Hg10 mi
6:50 am27 °FClear.3 mph93%30.60 "Hg10 mi
1:50 am28 °FClear.2 mph93%30.63 "Hg10 mi
1:20 am28 °FClear.3 mph93%30.63 "Hg10 mi
12:50 am30 °FClear.2 mph86%30.63 "Hg10 mi
12:20 am28 °FClear.1 mph93%30.63 "Hg10 mi
11:50 pm
Wed, Jan 18
30 °FClear.1 mph93%30.63 "Hg10 mi
11:20 pm30 °FClear.2 mph93%30.63 "Hg10 mi
10:50 pm32 °FClear.2 mph87%30.63 "Hg10 mi
10:20 pm30 °FClear.1 mph93%30.63 "Hg10 mi
9:50 pm30 °FClear.5 mph93%30.63 "Hg10 mi
9:20 pm34 °FClear.3 mph87%30.63 "Hg10 mi
Weather by CustomWeather, © 2017

See weather overviewHow to use our weather pages